map of ARN home
ARN - Airport
Location
City:  Stockholm, Stockholms län, Sweden
Name:Arlanda
ICAO:ESSA
IATA:ARN

Details
Type:Airport (Aerodrome, Airfield)
Use:Public/Civil, International (customs port of entry)
Latitude:59°39'07"N (59.651944)
Longitude:17°55'07"E (17.918611)
Datum:other
Elevation:137 ft (42 m)
Variation:6.46°E (WMM2015v2 magnetic declination)
0.20° annual change
Runways:3
Longest:10830 × 148 ft (3301 × 45 m), paved

Time
Time Zone:UTC+1 (DST+2)
Local Time:

Weather
METAR:ESSA 041350Z 19006KT 2500 BR OVC002 M06/M07 Q1018 R01L/510260 R08/410278 R01R/SNOCLO BECMG 5000
TAF:ESSA 041130Z 0412/0512 19005KT 0300 FZFG VV002
BECMG 0412/0413 9999 NSW BKN004
TEMPO 0413/0419 3000 BR SCT004 BKN015
BECMG 0419/0421 1400 SN VV006
TEMPO 0421/0512 5000 -SN BKN020

Related Locations
Nearby:
Farthest:CHT: 11181 mi / 17994 km
Waitangi [Tuuta], CIT, NZ

Find:

   beyond  
but within

Other Information
Maps:
NOTAMs:
Links:
Sources:

  
  • flag of Sweden
  

Sectional Chart

Flight Planning
at skyvector.com

Satellite Image

Google Maps Satellite view

 

Copyright © 2004-2019 Karl L. Swartz. All rights reserved.
The Great Circle Mapper name and logo are trademarks of the Great Circle Mapper.
All other trademarks mentioned herein belong to their respective owners.
Please see credits for attibutions and further copyright information.

  Follow gcmap on Facebook Follow gcmap on Twitter GCmap on LinkedIn

hCard Microformat

Geo Microformat